{"data":{"norad_id":54672,"epoch":"2026-09-19T16:15:54.363456Z","epoch_age_seconds":92973,"freshness":"FRESH","line1":"1 54672U 22166AG  26262.67771254  .00000060  00000+0  11259-3 0  9994","line2":"2 54672  87.9289 225.1668 0002421  90.3781 269.7630 13.21827524184030","mean_motion":13.21827524,"eccentricity":0.0002421,"inclination_deg":87.9289,"raan_deg":225.1668,"arg_perigee_deg":90.3781,"mean_anomaly_deg":269.763,"bstar":0.00011259,"rev_number":18403,"period_min":108.94008286667,"perigee_km":1175.9182810094,"apogee_km":1179.5768403137,"semimajor_km":7555.8845606615,"source":"CELESTRAK","updated_at":"2026-09-20T09:00:44.747562Z"}}